Disclaimer

Please do not use the information listed here in-flight or in-navigation, as they are not provided to us by the airports but are provided by volunteers, so they might be outdated.

Search


Regions


Airport information page

Radio informations:
Tower (TWR) - 119.6 MHz

Airport informations:
Latitude: 42° 04' 04.10" N
Longitude: 024° 51' 03.00" E
Elevation: 597 feet - 182 meters
Operating hours: 24 hour operations
Operating agency: Civil government, landing fees and diplomatic clearance may be required
Timezone: UTC+2(+3DT) - Last Sunday in March to last Sunday in October
Fuel: N/A

Runway information:
12/30 - 8202 x 148 feet< - >2500 x 45 meters

Recent METARs:
LBPD 222030Z AUTO 27003KT 1300 1200NE R30/1400D FG SCT002 OVC006 02/02 Q1010
LBPD 222100Z AUTO 29004KT 260V320 1100 1000NE R30/1200U FG SCT002 OVC004 02/02 Q1010 R99/29//95
LBPD 222130Z AUTO 30004KT 1200 0800NE R30/0900U FG SCT002 OVC004 02/02 Q1009 R99/29//95

Airport on the map: